SCP
0 0 0 0 0 0 0 1 1 1 1 1 1 1 1 1 1 1 1 1 1 1 1 1 1 1 1 1 1 1 0 0 0 0 0 0 0 0 0 0 0 0 0
0 0 0 0 0 0 1 1 1 1 1 1 1 1 1 1 1 1 1 1 1 1 1 1 1 1 1 1 1 1 0 0 0 0 0 0 0 0 0 0 0 0 0
0 0 0 0 1 1 1 1 1 1 1 1 1 1 1 1 1 1 1 1 1 1 1 1 1 1 1 1 1 1 0 0 0 0 0 0 0 0 0 0 0 0 0
0 0 0 0 1 1 1 1 1 1 1 1 1 1 1 1 1 1 1 1 1 1 1 1 1 1 1 1 1 1 0 0 0 0 0 0 0 0 0 0 0 0 0
0 0 0 0 1 1 1 0 0 0 0 0 0 1 1 1 1 1 1 1 1 1 1 1 1 1 1 1 1 1 1 0 0 0 0 0 0 0 0 0 0 0 0
0 0 0 0 0 0 0 0 0 0 0 0 0 0 0 0 1 1 1 1 1 1 1 1 1 1 1 1 1 1 1 1 0 0 0 0 0 0 0 0 0 0 0
0 0 0 0 0 0 0 0 0 0 0 0 0 0 0 0 0 0 1 1 1 1 1 1 1 1 1 1 1 1 1 1 0 0 0 0 0 0 0 0 0 0 0
0 0 0 0 0 0 0 0 0 0 0 0 0 0 0 0 0 0 0 1 1 1 2 2 2 1 1 1 1 1 1 1 1 0 0 0 0 0 0 0 0 0 0
0 0 0 0 0 0 0 0 0 0 0 0 0 0 0 0 0 0 0 0 1 1 2 2 1 1 1 1 1 1 1 1 1 0 0 0 0 0 0 0 0 0 0
0 0 0 0 0 0 0 0 0 0 0 0 0 0 0 0 0 0 0 0 1 1 1 1 1 1 1 1 1 1 1 1 1 0 0 0 0 1 0 0 0 0 0
0 0 0 0 0 0 0 0 0 0 0 0 0 0 0 0 0 0 0 0 1 1 1 1 1 1 1 1 1 1 1 1 0 0 0 0 1 1 1 0 0 0 0
0 0 0 0 0 0 0 0 0 0 0 0 0 0 0 0 0 0 0 0 0 1 1 1 1 1 1 1 1 1 1 1 0 0 0 1 1 1 1 1 1 0 0
1 0 0 0 0 0 0 0 0 0 0 0 0 0 0 0 0 0 0 0 0 0 0 1 1 1 1 1 1 1 1 1 1 0 0 1 1 1 1 1 1 1 1
1 0 0 0 0 0 0 0 0 0 0 0 0 0 0 0 0 0 0 0 0 0 0 0 0 0 1 1 1 1 1 1 1 0 0 1 1 1 1 1 1 1 1
0 0 0 0 0 0 0 0 0 0 0 0 0 0 0 0 0 0 0 0 0 0 0 0 0 0 0 0 1 1 1 1 0 0 0 1 1 1 1 1 1 1 1
0 0 0 0 0 0 0 0 0 0 0 0 0 0 0 0 0 0 0 0 0 0 0 0 0 0 0 0 0 0 0 0 0 0 0 0 1 1 1 1 1 1 1
0 0 0 0 0 0 0 0 0 0 0 0 0 0 0 0 0 0 0 0 0 0 0 0 0 0 0 0 0 0 0 0 0 0 0 0 0 1 1 1 1 1 1
0 0 0 0 0 0 0 0 0 0 0 0 0 0 0 0 0 0 0 0 0 0 0 0 0 0 0 0 0 0 0 0 0 0 0 0 0 1 1 1 1 1 1
0 0 0 0 0 0 0 0 0 0 0 0 0 0 0 0 0 0 0 0 0 0 0 0 0 0 0 0 0 0 0 0 0 0 0 0 0 1 1 1 1 1 1
0 0 0 0 0 0 0 0 0 0 0 0 0 0 0 0 0 0 0 0 0 0 0 0 0 0 0 0 0 0 0 0 0 0 0 0 1 1 1 1 1 1 1
0 0 0 0 0 0 0 0 0 0 0 0 0 0 0 0 0 0 0 0 0 0 0 0 0 0 0 0 0 0 0 0 0 0 0 1 0 0 0 0 0 0 1
0 0 0 0 0 0 0 0 0 0 0 0 0 0 0 0 0 0 0 0 0 0 0 0 0 0 0 0 0 0 0 0 0 0 0 0 0 0 0 0 0 0 0
0 0 0 0 0 0 0 0 0 0 0 0 0 0 0 0 0 0 0 0 0 0 0 0 0 0 0 0 0 0 0 0 0 0 0 0 0 0 0 0 0 0 0
0 0 0 0 0 0 0 0 0 0 0 0 0 0 0 0 0 0 0 0 0 0 0 0 0 0 0 0 0 0 0 0 0 0 0 0 0 0 0 0 0 0 0
1 0 0 0 0 0 0 0 0 0 0 0 0 0 0 0 0 0 0 0 0 0 0 0 0 0 0 0 0 0 0 0 0 0 0 0 0 0 0 0 0 0 0
1 0 0 0 0 0 0 0 0 0 0 0 0 0 0 0 0 0 0 0 0 0 0 0 0 0 0 0 0 0 0 0 0 0 0 0 0 0 0 0 0 0 0
Wind_Speed
2 2 6 7 7 7 7 7 7 7 7 6 6 6 6 6 6 5 5 5 5 4 4 4 4 4 5 5 5 5 5 5 5 4 4 4 4 3 4 5 5 3 6
4 3 7 7 7 7 7 7 6 6 6 5 4 4 4 4 4 3 3 3 3 3 3 3 3 3 3 4 4 4 4 4 4 4 4 3 3 3 3 4 4 3 5
5 4 5 7 7 7 7 6 6 5 5 4 4 3 3 3 2 2 2 1 2 2 2 2 1 1 1 2 2 2 3 3 3 4 4 2 2 1 2 3 4 4 5
5 4 5 7 7 7 6 6 5 5 4 4 3 3 2 1 1 1 0 1 1 2 1 1 1 1 1 1 1 1 1 2 2 3 2 1 1 0 2 3 3 4 4
5 4 4 7 7 6 5 5 4 4 3 3 2 2 2 2 2 2 2 2 2 2 2 2 2 2 2 1 1 0 0 1 2 3 2 1 1 1 2 3 3 4 4
4 3 4 7 7 6 5 5 4 3 2 2 2 2 2 2 3 3 3 3 3 3 3 3 3 3 3 3 2 2 1 1 1 2 1 1 1 3 3 3 4 4 4
4 3 3 7 6 6 5 4 3 2 2 2 2 3 3 3 3 4 4 4 4 4 4 4 4 4 4 3 3 3 2 2 1 0 0 1 2 4 4 4 4 4 4
5 3 3 6 6 5 4 3 2 2 2 2 2 3 3 4 4 4 4 5 5 5 5 5 4 4 5 5 4 4 3 3 0 0 1 1 3 4 5 5 5 5 4
4 3 2 1 2 3 3 2 1 1 2 2 3 3 4 4 4 4 5 5 5 5 5 5 5 5 5 5 5 5 4 2 1 1 1 1 4 4 5 5 6 5 5
3 2 2 1 1 1 1 1 0 1 2 3 4 4 5 6 6 6 6 6 5 5 5 6 6 5 5 5 5 5 4 2 1 1 1 2 5 5 5 6 6 6 5
2 2 2 1 1 1 1 1 1 2 4 4 5 6 5 3 3 4 5 5 5 5 5 5 5 5 4 4 5 4 2 0 1 1 2 4 6 6 6 6 7 7 6
4 3 3 3 2 1 1 1 1 2 3 3 2 3 2 2 3 4 6 7 6 6 5 5 5 4 2 1 3 3 0 1 1 2 2 6 6 6 6 6 7 8 7
5 4 4 3 2 2 1 0 1 1 1 2 3 3 2 2 2 3 2 4 4 5 3 4 3 2 1 1 1 1 1 1 1 1 2 6 5 5 6 7 8 8 8
4 4 4 4 3 2 1 0 0 0 1 1 2 2 1 1 2 2 2 2 2 2 2 2 2 2 2 1 1 1 1 1 1 1 3 5 5 4 5 7 8 8 9
5 4 4 4 4 2 1 1 1 0 0 0 1 1 1 1 1 1 1 2 2 2 2 2 2 2 2 2 1 2 2 2 2 2 2 4 4 4 4 6 7 8 9
6 5 4 4 4 3 2 1 1 1 1 1 1 1 1 1 1 1 1 2 2 2 2 1 2 2 2 1 2 2 2 2 2 2 2 2 4 3 3 4 6 6 8
6 5 5 5 4 3 3 2 1 1 1 1 1 1 1 1 1 1 1 1 2 2 2 1 1 1 1 1 2 2 1 2 2 2 1 1 1 3 3 3 4 5 6
6 6 5 5 5 4 3 2 1 1 1 1 1 1 1 1 1 1 1 1 2 2 2 1 1 1 1 1 1 1 1 1 1 1 1 1 1 1 2 3 3 5 6
7 7 6 5 5 4 3 2 2 1 1 1 1 1 1 2 1 1 1 1 2 2 2 2 1 0 1 2 2 1 1 1 1 1 1 1 1 1 1 2 3 3 4
6 6 6 5 4 4 3 2 2 2 1 1 1 1 1 2 2 1 1 2 2 2 2 1 1 1 1 1 1 1 1 1 1 1 1 0 1 1 1 1 1 1 3
6 6 6 5 4 4 2 2 1 0 1 1 1 2 2 2 2 1 1 2 2 1 2 2 1 1 1 1 1 2 2 2 1 1 1 0 1 1 1 1 1 1 1
7 7 6 6 5 4 3 2 2 1 1 1 1 2 2 2 2 1 1 1 1 1 2 2 1 1 1 1 1 1 2 3 3 2 1 1 1 1 0 1 1 1 1
8 8 8 7 6 5 4 2 2 2 2 2 2 2 2 2 2 2 2 1 1 1 1 1 0 0 0 1 1 2 2 1 2 2 2 2 2 1 1 0 0 1 2
9 7 7 7 6 5 4 3 3 2 1 2 1 2 3 2 2 2 2 1 1 1 1 1 0 0 1 0 1 1 1 2 1 1 2 2 2 2 2 1 0 0 1
7 7 6 6 5 5 4 5 4 2 2 1 1 2 2 2 3 2 1 1 1 1 1 1 1 0 1 1 0 0 1 1 1 1 1 2 2 2 2 1 1 0 1
5 6 6 6 5 5 5 4 5 4 3 1 1 2 2 2 2 2 2 1 1 1 1 1 0 0 0 1 1 1 1 1 1 1 1 0 1 2 2 2 1 1 0
Wind_Direction
181 184 166 147 137 129 120 117 115 111 109 110 113 114 116 118 118 120 123 120 113 109 108 105 100 96 90 89 89 87 83 79 76 74 75 81 87 91 101 98 86 63 67
150 158 159 147 139 130 120 117 115 111 105 103 105 108 110 113 117 121 125 127 121 116 119 120 113 103 96 94 91 88 84 78 72 67 65 64 72 96 105 112 102 90 78
131 140 146 142 134 127 120 116 113 108 102 98 94 95 97 98 103 117 140 155 155 150 158 148 149 139 114 97 88 83 80 73 64 55 56 41 14 113 121 130 122 105 88
133 129 139 141 134 127 124 119 110 103 96 91 85 80 76 69 56 34 311 261 233 210 212 220 223 208 199 170 103 76 69 64 56 50 49 16 335 169 154 148 138 121 100
126 125 146 140 133 128 123 116 108 99 91 79 68 50 34 13 359 341 314 294 279 263 256 251 256 254 242 233 226 217 312 359 44 50 39 15 339 270 183 167 154 136 116
127 128 148 139 134 130 125 119 111 98 82 55 28 10 351 335 327 321 314 305 294 285 278 268 261 262 262 251 250 253 270 290 41 49 19 339 290 257 208 186 174 155 134
137 135 147 142 137 135 132 127 119 102 77 43 20 6 357 337 324 317 306 298 294 294 290 281 270 267 266 268 261 265 274 271 106 88 331 292 268 252 213 195 189 171 152
144 141 142 153 149 150 146 137 126 99 58 26 10 358 353 341 330 318 310 297 290 291 292 284 278 269 265 265 263 261 271 268 221 106 286 269 265 250 221 202 194 180 168
140 138 145 149 153 161 161 152 124 70 35 20 5 356 348 343 340 333 321 308 295 286 287 285 283 273 263 266 267 264 264 274 159 189 260 263 273 257 231 209 197 191 177
139 152 166 156 111 71 25 216 183 24 22 16 7 0 359 1 355 343 337 321 304 296 289 289 288 281 275 274 275 269 264 274 201 218 242 259 269 257 234 214 200 194 182
177 186 178 178 182 174 240 303 5 10 14 15 7 5 12 9 357 343 339 337 325 317 308 302 302 297 292 291 288 283 287 194 222 233 239 262 266 253 235 216 203 194 189
201 204 195 190 194 194 234 59 16 17 16 10 4 6 9 12 358 4 356 359 358 353 345 335 330 326 323 327 309 307 312 244 237 240 248 264 265 249 236 218 205 197 194
201 199 190 187 186 175 166 81 31 16 14 6 8 15 21 22 8 12 7 4 3 7 2 352 358 357 355 323 306 290 240 225 237 255 267 272 271 254 233 218 209 201 199
191 198 187 178 170 173 153 129 99 57 22 13 3 18 42 30 14 7 9 355 358 351 344 343 345 340 331 306 270 265 254 236 236 251 267 274 274 264 235 215 207 204 202
192 193 182 170 168 164 151 171 127 120 84 47 25 17 68 74 23 13 4 1 351 344 342 330 332 332 325 314 292 261 256 245 237 242 265 283 288 282 251 220 210 208 207
194 189 176 170 168 155 156 159 148 135 119 68 50 26 57 81 57 28 7 357 343 334 327 317 309 312 307 305 303 288 260 245 237 241 245 280 296 294 275 235 216 215 215
189 178 172 173 161 159 159 161 146 144 125 87 52 32 38 52 41 34 12 347 326 322 328 331 322 322 315 318 305 294 263 244 230 234 241 245 287 292 287 257 226 218 218
175 172 179 169 154 156 149 141 129 120 116 91 47 24 15 20 38 39 15 335 326 331 339 330 336 324 319 322 309 299 290 269 242 236 233 235 250 282 294 286 251 222 219
178 172 166 152 149 146 131 110 97 87 80 52 30 8 355 3 10 22 356 325 335 347 345 323 358 296 303 320 301 302 317 308 289 285 274 249 248 246 256 283 275 233 215
168 162 156 147 144 131 108 86 62 49 24 12 358 332 346 352 357 3 345 338 348 358 346 340 329 328 290 304 322 14 347 338 343 339 295 276 267 253 236 253 263 251 215
159 161 165 158 155 142 125 124 119 180 307 319 314 323 338 340 347 352 342 340 349 354 327 324 323 348 354 354 44 17 357 360 13 352 333 4 330 284 240 209 196 179 213
174 175 174 172 168 170 159 150 154 156 222 263 300 323 329 334 334 324 323 321 331 335 346 351 7 8 358 28 88 82 15 357 350 359 5 18 327 312 287 226 190 182 190
182 184 183 181 177 175 156 119 86 58 28 5 336 322 320 324 329 331 318 310 321 326 318 314 337 84 13 358 49 123 130 216 312 335 355 8 346 357 351 346 176 176 183
192 182 177 176 175 172 161 158 151 154 189 239 259 285 306 322 329 328 321 313 315 318 314 304 90 179 138 3 355 33 125 158 150 340 337 351 359 13 359 350 329 191 173
181 176 174 171 176 174 173 170 159 165 196 238 280 301 313 321 323 324 323 321 328 310 300 318 360 92 147 166 159 92 62 61 90 130 341 340 352 354 357 345 345 2 162
174 172 169 172 183 181 179 175 175 180 186 198 264 291 302 310 311 316 316 315 309 298 294 292 296 138 135 145 141 140 144 138 155 135 148 341 336 323 335 349 5 348 227